THORAD AGENA D DEB, 6216

Orbit data source: Space-Track

THORAD AGENA D DEB, 6216 is space debris in SSO originally from a launch on Wed, 08 Apr 1970 UTC launched from the Air Force Western Test Range (AFWTR). Debris objects in space refer to the collection of defunct objects orbiting the Earth. Examples of debris include non-operational satellites, rocket bodies, and fragments generated from explosions, collisions, or faulty payload assembly.

Loading next visibility...
Identifier
6216, 1970-025NE
Orbit
SSO
Country
Flag of USUS
Related business
Manufacturer
Unknown
Mission
Spacecraft
Bus & Motor
Unknown
Mass
Unknown
Launch date (UTC)
1970-04-08 (56 years ago)
Launch vehicle
Unknown
Launch site
Air Force Western Test Range (AFWTR)
Object type
Payload
Rocket body
Debris
Shape & HBR
Unknown shape, 0.1 m
Radar Cross Section
Medium (>0.1 m² and <1 m²)

Expand to show TLE details & history
Last TLE update: 12 hours ago

TLE from 12 hours ago
0 THORAD AGENA D DEB
1 06216U 70025NE  26169.29140614  .00002779  00000-0  67539-3 0  9998
2 06216  98.9995  71.0628 0214685  69.5938 292.8164 14.40662879876231
Epoch: 2026-06-18T06:59Z
TLE epoch observation values (Epoch: 2026-06-18T06:59:37.490Z)
Latitude
0.00001°
Longitude
59.61975°
Altitude
702.666 km
Speed
7.534 km/s
True Right ascension
04h 44m 15s
True Declination
0° 00' 00"
Sunlit
Object was in daylight at epoch
Visualization orbit readout
Latitude
Unknown
Longitude
Unknown
Altitude
Unknown
Speed
Unknown
Apparent Right ascension
Unknown
Apparent Declination
Unknown
Sunlit
N/A
Visualization observer readout
Local Sidereal Time
06:03:12
Azimuth
Unknown
Elevation
Unknown
Doppler factor
Unknown
Orbital elements
Apogee altitude
906.557 km
Perigee altitude
600.348 km
Semi-major axis
7,131.589 km
Eccentricity
0.02147
Inclination
98.9995°
RAAN
71.0628°
Arg. of periapsis
69.5938°
True anomaly
290.52557°
Mean anomaly
292.8164°
Eccentric anomaly
291.6733°
Mean motion
3.60382 °/min
Orbital period
99.89 mins
BSTAR
0.00067539
Loading maneuver chart data...
Computing Atmospheric mass density...

Documentation

Showing up to 5 results
|